This demonstration page uses our WeatherBlox Daily Observations layout. Learn more.

Left ArrowRight Arrow

41.12389, -100.76542

Hourly Observations for July 26, 2018

Temp ( °F °C ) Dew Point ( °F °C ) Humidity (%) Winds ( mph kmh ) Pressure ( in mb ) Visibility ( mi km ) Precip ( " mm )
12:53 am 00:53 Mostly Cloudy 70 21.1 65 18.3 84 84 SSE 5 7 30.12 1020 10 16 0.00 0.00
1:53 am 01:53 Mostly Cloudy 68 20 66 18.9 93 93 ESE 5 7 30.14 1021 10 16 0.00 0.00
2:53 am 02:53 Partly Cloudy 67 19.4 66 18.9 97 97 NE 5 7 30.12 1020 10 16 0.00 0.00
3:53 am 03:53 Partly Cloudy 65 18.3 65 18.3 100 100 Calm 30.11 1020 10 16 0.00 0.00
4:53 am 04:53 Mostly Cloudy 65 18.3 65 18.3 100 100 NNE 3 6 30.12 1020 10 16 0.00 0.00
5:53 am 05:53 Partly Cloudy 63 17.2 63 17.2 100 100 Calm 30.11 1020 10 16 0.00 0.00
6:53 am 06:53 Mostly Sunny 63 17.2 63 17.2 100 100 E 3 6 30.13 1020 10 16 0.00 0.00
7:53 am 07:53 Partly Cloudy 65 18.3 65 18.3 100 100 Calm 30.14 1021 10 16 0.00 0.00
8:53 am 08:53 Mostly Sunny 69 20.6 67 19.4 93 93 SE 3 6 30.14 1021 10 16 0.00 0.00
9:53 am 09:53 Sunny 73 22.8 65 18.3 76 76 Calm 30.14 1021 10 16 0.00 0.00
10:53 am 10:53 Sunny 76 24.4 65 18.3 69 69 S 3 6 30.13 1020 10 16 0.00 0.00
11:53 am 11:53 Mostly Sunny 79 26.1 66 18.9 65 65 SSW 5 7 30.13 1020 10 16 0.00 0.00
12:53 pm 12:53 Partly Cloudy 80 26.7 64 17.8 58 58 Calm 30.13 1020 10 16 0.00 0.00
1:53 pm 13:53 Sunny 83 28.3 63 17.2 51 51 VRB 5 7 30.11 1020 10 16 0.00 0.00
2:53 pm 14:53 Sunny 84 28.9 64 17.8 51 51 SW 5 7 30.08 1019 10 16 0.00 0.00
3:53 pm 15:53 Sunny 85 29.4 61 16.1 45 45 Calm 30.07 1018 10 16 0.00 0.00
4:04 pm 16:04 Sunny with Nearby Thunderstorms 85 29.4 62 16.7 46 46 VRB 5 7 29.97 1015 10 16 0.00 0.00
4:24 pm 16:24 Mostly Cloudy with Thunderstorms 80 26.7 62 16.7 54 54 undefined N/A 30.00 1016 10 16 0.00 0.00
4:42 pm 16:42 Cloudy with Nearby Thunderstorms 66 18.9 60 15.6 81 81 ENE 17 28 30.06 1018 10 16 0.00 0.03
4:53 pm 16:53 Mostly Cloudy with Nearby Thunderstorms 67 19.4 63 17.2 87 87 ENE 9 15 30.10 1019 10 16 0.00 0.03
5:29 pm 17:29 Mostly Sunny 70 21.1 66 18.9 87 87 ENE 12 19 30.03 1017 10 16 0.00 0.03
5:53 pm 17:53 Sunny 73 22.8 66 18.9 79 79 E 16 26 30.11 1020 10 16 0.00 0.03
6:53 pm 18:53 Partly Cloudy 71 21.7 64 17.8 79 79 SSE 13 20 30.12 1020 10 16 0.00 0.00
7:53 pm 19:53 Sunny 71 21.7 65 18.3 81 81 SE 9 15 30.11 1020 10 16 0.00 0.00
8:53 pm 20:53 Sunny 67 19.4 65 18.3 93 93 SSE 3 6 30.12 1020 10 16 0.00 0.00
9:53 pm 21:53 Clear 64 17.8 64 17.8 100 100 ENE 3 6 30.14 1021 10 16 0.00 0.00
10:53 pm 22:53 Clear 63 17.2 63 17.2 100 100 Calm 30.14 1021 10 16 0.00 0.00
11:53 pm 23:53 Clear 61 16.1 61 16.1 100 100 Calm 30.14 1021 10 16 0.00 0.00

Powered by AerisWeather